SCP
0 0 0 0 0 0 0 0 0 0 0 0 0 0 0 0 0 0 0 0 0 0 0 0 0 0 0 0 0 0 0 0 0 0 0 0 0 0 0 0 0 0 0
0 0 0 0 0 0 0 0 0 0 0 0 0 0 0 0 0 0 0 0 0 0 0 0 0 0 0 0 0 0 0 0 0 0 0 0 0 0 0 0 0 0 0
0 0 0 0 0 1 1 0 0 0 0 0 0 0 0 0 0 0 0 0 0 0 0 0 0 0 0 0 0 0 0 0 0 0 0 0 0 0 0 0 0 0 0
0 0 0 0 0 0 1 0 0 0 0 0 0 0 0 0 0 0 0 0 0 0 0 0 0 0 0 0 0 0 0 0 0 0 0 0 0 0 0 0 0 0 0
0 0 0 0 0 0 0 0 0 0 0 0 0 0 0 0 0 0 0 0 0 0 0 0 0 0 0 0 0 0 0 0 0 0 0 0 0 0 0 0 0 0 0
0 0 0 0 0 0 0 0 0 0 0 0 0 0 0 0 0 0 0 0 0 0 0 0 0 0 0 0 0 0 0 0 0 0 0 0 0 0 0 0 0 0 0
0 0 0 0 0 0 0 0 0 0 0 0 0 0 0 0 0 0 0 0 0 0 0 0 0 0 0 0 0 0 0 0 0 0 0 0 0 0 0 0 0 0 0
0 0 0 0 0 0 0 0 0 0 0 0 0 0 0 0 0 0 0 0 0 0 0 0 0 0 0 0 0 0 0 0 0 0 0 0 0 0 0 0 0 0 0
0 0 0 0 0 0 0 0 0 0 0 0 0 0 0 0 0 0 0 0 0 0 0 0 0 0 0 0 0 0 0 0 0 0 0 0 0 0 0 0 0 0 0
0 0 0 0 0 0 0 0 0 0 0 0 0 0 0 0 0 0 0 0 0 0 0 0 0 0 0 0 0 0 0 0 0 0 0 0 0 0 0 0 0 0 0
0 0 0 0 0 0 0 0 0 0 0 0 0 0 0 0 0 0 0 0 0 0 0 0 0 0 0 0 0 0 0 0 0 0 0 0 0 0 0 0 0 0 0
0 0 0 0 0 0 0 0 0 0 0 0 0 0 0 0 0 0 0 0 0 0 0 0 0 0 0 0 0 0 0 0 0 0 0 0 0 0 0 0 0 0 0
0 0 0 0 0 0 0 0 0 0 0 0 0 0 0 0 0 0 0 0 0 0 0 0 0 0 0 0 0 0 0 0 0 0 0 0 0 0 0 0 0 0 0
0 0 0 0 0 0 0 0 0 0 0 0 0 0 0 0 0 0 0 0 0 0 0 0 0 0 0 0 0 0 0 0 0 0 0 0 0 0 0 0 0 0 0
0 0 0 0 0 0 0 0 0 0 0 0 0 0 0 0 0 0 0 0 0 0 0 0 0 0 0 0 0 0 0 0 0 0 0 0 0 0 0 0 0 0 0
0 0 0 0 0 0 0 0 0 0 0 0 0 0 0 0 0 0 0 0 0 0 0 0 0 0 0 0 0 0 0 0 0 0 0 0 0 0 0 0 0 0 0
0 0 0 0 0 0 0 0 0 0 0 0 0 0 0 0 0 0 0 0 0 0 0 0 0 0 0 0 0 0 0 0 0 0 0 0 0 0 0 0 0 0 0
0 0 0 0 0 0 0 0 0 0 0 0 0 0 0 0 0 0 0 0 0 0 0 0 0 0 0 0 0 0 0 0 0 0 0 0 0 0 0 0 0 0 0
0 0 0 0 0 0 0 0 0 0 0 0 0 0 0 0 0 0 0 0 0 0 0 0 0 0 0 0 0 0 0 0 0 0 0 0 0 0 0 0 0 0 0
0 0 0 0 0 0 0 0 0 0 0 0 0 0 0 0 0 0 0 0 0 0 0 0 0 0 0 0 0 0 0 0 0 0 0 0 0 0 0 0 0 0 0
0 0 0 0 0 0 0 0 0 0 0 0 0 0 0 0 0 0 0 0 0 0 0 0 0 0 0 0 0 0 0 0 0 0 0 0 0 0 0 0 0 0 0
0 0 0 0 0 0 0 0 0 0 0 0 0 0 0 0 0 0 0 0 0 0 0 0 0 0 0 0 0 0 0 0 0 0 0 0 0 0 0 0 0 0 0
0 0 0 0 0 0 0 0 0 0 0 0 0 0 0 0 0 0 0 0 0 0 0 0 0 0 0 0 0 0 0 0 0 0 0 0 0 0 0 0 0 0 0
0 0 0 0 0 0 0 0 0 0 0 0 0 0 0 0 0 0 0 0 0 0 0 0 0 0 0 0 0 0 0 0 0 0 0 0 0 0 0 0 0 0 0
0 0 0 0 0 0 0 0 0 0 0 0 0 0 0 0 0 0 0 0 0 0 0 0 0 0 0 0 0 0 0 0 0 0 0 0 0 0 0 0 0 0 0
0 0 0 0 0 0 0 0 0 0 0 0 0 0 0 0 0 0 0 0 0 0 0 0 0 0 0 0 0 0 0 0 0 0 0 0 0 0 0 0 0 0 0
Wind_Speed
11 11 11 12 12 12 11 12 11 10 11 12 13 13 13 12 12 11 10 11 11 9 7 9 8 7 6 5 4 4 3 4 4 2 2 3 4 3 2 0 0 0 0
8 8 9 9 10 11 12 11 10 10 10 11 11 12 12 12 12 13 13 12 13 12 11 10 9 7 8 6 5 5 4 4 4 4 2 2 3 3 2 1 1 0 1
6 6 7 8 9 10 10 9 9 9 9 9 11 12 12 12 12 12 13 13 13 13 13 13 12 11 9 6 6 6 4 4 3 4 3 2 2 2 2 1 1 1 1
5 6 7 7 7 7 7 7 7 8 9 10 10 11 11 11 11 11 11 11 11 10 11 12 12 13 13 11 8 7 6 5 4 4 3 2 2 2 2 1 1 1 2
5 5 6 5 4 4 5 5 6 7 8 8 9 8 9 9 10 12 11 11 11 11 9 9 10 11 13 11 9 9 9 6 5 4 4 3 3 3 3 2 2 1 2
5 5 4 3 3 3 4 4 5 5 6 6 8 8 9 8 12 16 13 11 11 12 11 9 8 9 13 13 13 13 12 10 9 6 5 5 5 4 3 3 2 1 2
5 4 3 3 3 3 3 4 5 5 5 6 7 8 8 9 14 16 16 11 11 11 12 11 8 8 10 9 11 13 10 10 10 7 6 6 6 6 6 4 3 3 3
4 4 3 3 3 3 3 4 4 4 5 5 6 7 6 7 14 16 16 10 9 9 10 12 12 12 11 12 10 8 6 5 6 4 4 4 4 5 5 5 4 2 2
4 4 4 4 4 4 4 4 3 3 4 4 4 6 6 7 13 16 15 8 7 8 8 8 10 11 17 18 12 10 8 5 6 7 6 6 7 8 7 4 3 2 2
4 3 3 4 4 4 4 3 2 3 3 4 4 4 6 6 12 16 16 7 8 7 7 7 9 13 19 20 12 11 11 8 7 6 6 6 5 6 9 6 5 4 3
2 3 3 3 3 3 3 2 3 3 3 3 4 3 4 5 11 16 16 7 8 9 8 8 8 17 19 19 13 8 10 9 8 7 5 4 4 4 4 5 4 4 4
3 3 3 2 2 2 3 3 3 4 4 4 3 3 2 3 6 12 16 11 9 7 7 6 8 18 18 18 12 11 13 10 6 6 5 6 6 6 5 5 5 4 3
3 3 3 2 2 2 3 3 3 3 3 3 3 3 3 3 5 11 13 13 12 6 5 10 12 17 16 13 13 14 10 7 6 6 7 6 5 5 4 4 4 3 3
3 3 2 2 2 2 2 2 3 3 3 3 4 4 4 4 5 5 6 7 8 7 6 8 13 15 11 8 8 9 6 6 6 6 5 4 4 4 4 4 4 3 3
4 3 3 2 2 1 1 1 1 1 2 3 3 4 5 6 8 11 9 7 6 7 8 6 6 7 7 6 5 5 6 6 6 5 5 5 5 5 5 5 4 4 4
4 3 2 2 2 2 2 2 2 1 1 3 3 3 3 4 7 12 14 13 13 15 8 7 8 8 8 8 8 7 7 8 7 7 6 6 7 7 6 5 5 5 6
4 3 2 2 2 2 1 1 1 2 2 2 3 5 5 5 8 12 13 14 15 15 7 7 7 8 8 8 8 8 8 8 7 7 7 7 7 6 6 6 6 6 6
4 4 3 2 2 1 1 1 0 0 1 1 2 4 4 5 7 10 12 11 9 10 6 6 7 7 7 7 8 7 7 7 7 8 8 7 7 7 7 7 7 7 7
4 3 3 2 2 2 1 1 0 0 1 1 1 1 2 4 6 9 10 6 6 7 7 7 6 6 6 7 7 7 7 7 8 8 8 8 8 8 8 8 7 9 7
4 5 4 3 2 2 2 1 1 1 1 1 1 1 0 1 2 4 5 5 5 6 6 6 6 6 6 6 6 6 7 7 8 8 8 8 8 8 8 9 8 7 7
4 4 5 3 3 3 2 2 2 1 1 1 1 2 3 2 3 4 4 4 5 5 5 4 5 5 5 5 6 7 8 7 7 8 7 7 8 8 7 7 8 7 6
3 3 3 3 3 3 3 2 2 2 2 2 2 3 5 2 2 2 3 3 3 3 3 3 4 4 5 5 6 7 8 8 8 8 8 8 8 8 7 7 7 7 7
4 4 3 3 3 3 3 2 2 2 2 2 2 2 2 3 3 3 3 3 2 2 2 2 3 3 3 4 4 6 7 7 7 7 8 8 8 8 8 8 9 8 8
4 4 3 3 3 3 3 3 3 3 3 3 3 2 3 3 3 3 3 3 3 3 2 2 3 4 5 4 3 4 4 5 5 6 9 8 8 8 8 8 9 9 9
3 3 3 3 3 3 3 3 3 3 3 3 3 3 3 3 3 3 3 3 3 3 4 4 3 4 5 6 5 5 7 8 7 5 6 7 8 8 8 8 8 8 8
3 3 2 2 2 2 2 3 3 3 3 3 3 3 3 4 4 4 3 3 3 4 4 4 5 5 6 5 7 8 8 10 9 9 7 6 8 8 8 7 9 8 8
Wind_Direction
214 215 214 214 211 210 212 213 208 202 196 196 194 193 193 194 190 190 188 180 182 179 172 173 173 162 162 160 152 150 150 139 150 137 112 135 142 145 137 150 173 131 231
218 219 218 216 211 210 213 212 204 201 197 195 190 190 192 192 189 188 185 182 182 180 178 172 172 165 164 162 158 159 157 148 145 152 136 138 153 161 154 199 215 198 240
221 223 224 220 216 216 213 206 199 197 194 189 188 192 192 190 189 189 185 184 184 181 179 177 174 168 169 166 162 160 154 143 128 139 144 138 141 153 144 217 235 253 276
217 221 225 225 222 218 209 199 197 194 194 192 192 193 191 189 188 185 182 180 180 178 178 177 175 175 173 168 166 162 151 142 133 136 140 151 159 156 148 195 246 261 277
208 220 228 226 221 212 206 201 196 194 195 191 190 189 187 187 187 183 179 177 175 172 171 171 174 172 170 167 166 164 158 153 149 154 161 161 173 168 185 176 202 270 274
205 216 217 213 212 209 202 194 191 191 186 182 186 185 189 193 187 182 175 174 172 171 169 164 160 161 164 163 162 163 164 164 169 170 176 184 188 175 159 163 174 186 270
199 205 197 194 201 204 195 188 192 189 183 185 186 186 193 194 185 181 176 170 171 174 169 163 162 163 157 153 157 159 168 177 175 170 177 186 174 170 161 170 188 200 225
190 198 190 185 196 196 196 199 193 182 185 189 189 189 188 191 185 182 173 167 167 170 170 170 167 165 167 158 153 155 159 169 171 164 163 161 152 150 160 168 176 198 265
197 201 193 185 190 193 200 199 184 176 182 181 178 181 186 188 185 178 167 159 161 163 162 166 167 167 171 164 159 161 162 169 176 161 156 157 158 161 160 144 157 172 242
207 202 185 178 187 197 199 183 160 167 176 163 169 180 184 185 184 179 169 162 161 159 158 164 175 174 173 170 166 167 174 174 163 163 167 175 171 182 184 178 176 182 200
160 154 158 170 179 180 171 157 150 149 148 154 162 167 175 181 185 183 178 171 170 166 170 175 181 180 178 178 174 175 177 161 162 164 168 173 174 185 190 186 189 191 197
120 128 136 143 140 141 146 143 145 148 153 158 157 158 159 167 181 188 187 185 172 168 175 176 179 180 180 181 178 176 170 157 155 166 181 192 197 198 193 191 196 206 212
102 111 117 122 120 128 142 148 147 158 164 170 174 178 172 168 186 189 188 184 177 166 166 171 175 180 180 181 182 178 168 165 170 184 198 202 196 184 171 175 185 196 220
95 97 103 115 116 119 128 146 160 171 178 179 185 186 175 176 183 182 181 180 176 165 154 161 171 177 177 168 172 180 178 183 186 197 199 184 165 170 182 180 185 184 212
86 84 81 81 99 112 106 121 173 189 198 196 199 190 186 200 203 192 181 182 174 164 145 142 157 167 176 177 181 184 184 185 195 199 193 187 185 189 193 184 183 187 205
79 74 72 74 74 76 81 50 37 13 298 257 242 219 219 222 199 197 198 192 181 168 159 171 180 185 190 190 192 194 196 201 202 201 200 198 197 198 197 190 190 200 214
64 66 66 68 73 71 70 72 19 15 3 304 265 241 225 213 203 200 200 196 190 183 190 190 193 196 198 196 197 199 202 201 197 200 203 203 201 200 198 199 200 207 217
48 53 53 56 59 66 70 69 74 333 331 333 305 265 240 221 211 204 199 190 195 199 207 205 207 205 203 201 202 204 202 194 197 202 204 203 201 201 203 204 204 206 211
41 38 33 37 39 42 43 50 43 345 299 308 332 308 261 231 217 209 196 202 204 209 211 214 213 210 207 206 205 203 201 201 200 200 204 204 202 202 208 208 206 206 205
36 33 31 30 31 30 27 27 22 6 330 302 291 295 247 179 203 209 210 216 220 223 221 221 218 215 212 210 208 203 204 206 204 205 206 204 203 203 208 207 206 206 209
25 25 26 31 29 24 18 10 1 351 330 311 298 289 273 240 230 230 230 231 235 236 233 229 227 222 218 215 211 208 209 211 208 206 205 203 200 205 207 206 208 209 209
16 22 26 26 21 20 11 4 0 351 337 323 318 314 301 298 281 270 259 256 254 253 250 242 237 230 220 215 213 214 215 215 210 205 204 202 201 205 204 205 205 206 206
17 21 22 18 14 9 6 360 353 344 335 330 327 322 315 298 290 288 291 296 296 288 282 265 258 252 240 230 222 220 223 222 214 205 203 203 202 202 203 206 205 202 205
16 20 19 12 8 6 358 349 343 338 332 326 321 315 311 310 306 303 303 305 304 299 293 279 269 267 260 251 242 237 236 233 216 210 206 206 205 204 203 207 206 207 207
14 15 12 6 360 351 343 337 334 331 325 320 316 310 307 305 302 302 301 296 295 289 287 284 276 267 259 253 250 245 243 241 231 216 208 209 210 208 206 208 208 205 206
4 3 358 351 344 336 330 324 321 319 314 311 308 306 304 301 298 296 296 293 290 286 283 278 274 272 266 260 257 254 247 243 234 221 210 210 211 210 207 210 208 207 206